Radiation Dose at Monitoring Post of Fukushima Daini Nuclear Power Station
Date,Time,MP-1(microSv/h),MP-2(microSv/h),MP-3(microSv/h),MP-4(microSv/h),MP-5(microSv/h),MP-6(microSv/h),MP-7(microSv/h),Wind Direction,Wind Velocity(m/s),Rain
2021/04/11,00:00,0.173,0.154,0.253,0.239,0.235,0.136,0.083,northwest,6.1,No
2021/04/11,00:10,0.173,0.154,0.254,0.239,0.236,0.135,0.083,northwest,6.1,No
2021/04/11,00:20,0.172,0.154,0.253,0.238,0.237,0.135,0.083,northwest,6.2,No
2021/04/11,00:30,0.172,0.155,0.254,0.239,0.234,0.135,0.083,northwest,5.5,No
2021/04/11,00:40,0.173,0.153,0.252,0.240,0.234,0.135,0.084,northwest,5.4,No
2021/04/11,00:50,0.173,0.155,0.254,0.238,0.236,0.135,0.083,northwest,5.7,No
2021/04/11,01:00,0.172,0.154,0.254,0.238,0.236,0.135,0.083,northwest,5.1,No
2021/04/11,01:10,0.172,0.154,0.253,0.238,0.236,0.134,0.083,north-northwest,5.4,No
2021/04/11,01:20,0.174,0.153,0.254,0.239,0.235,0.135,0.083,northwest,4.9,No
2021/04/11,01:30,0.173,0.154,0.253,0.237,0.236,0.134,0.083,northwest,5.2,No
2021/04/11,01:40,0.172,0.154,0.254,0.240,0.237,0.135,0.083,north-northwest,4.6,No
2021/04/11,01:50,0.173,0.153,0.254,0.239,0.236,0.135,0.083,northwest,4.6,No
2021/04/11,02:00,0.173,0.154,0.254,0.239,0.235,0.134,0.083,north-northwest,5.4,No
2021/04/11,02:10,0.174,0.154,0.253,0.240,0.236,0.134,0.083,north-northwest,5.6,No
2021/04/11,02:20,0.173,0.154,0.253,0.239,0.237,0.135,0.083,north-northwest,5.7,No
2021/04/11,02:30,0.173,0.155,0.254,0.240,0.236,0.135,0.083,north-northwest,5.5,No
2021/04/11,02:40,0.172,0.153,0.254,0.238,0.236,0.135,0.083,north-northwest,5.9,No
2021/04/11,02:50,0.173,0.154,0.253,0.239,0.236,0.135,0.083,north-northwest,5.7,No
2021/04/11,03:00,0.173,0.153,0.253,0.239,0.237,0.134,0.083,northwest,5.7,No
2021/04/11,03:10,0.173,0.154,0.252,0.239,0.236,0.135,0.083,north-northwest,6.2,No
2021/04/11,03:20,0.172,0.154,0.253,0.239,0.236,0.135,0.083,northwest,5.7,No
2021/04/11,03:30,0.173,0.154,0.253,0.240,0.236,0.135,0.084,north-northwest,5.8,No
2021/04/11,03:40,0.172,0.153,0.254,0.239,0.237,0.135,0.083,north-northwest,6.0,No
2021/04/11,03:50,0.173,0.154,0.254,0.239,0.236,0.135,0.083,north-northwest,6.1,No
2021/04/11,04:00,0.173,0.153,0.253,0.239,0.236,0.135,0.082,north-northwest,5.7,No
2021/04/11,04:10,0.174,0.154,0.254,0.239,0.237,0.134,0.083,north-northwest,5.9,No
2021/04/11,04:20,0.172,0.153,0.254,0.239,0.237,0.134,0.083,north-northwest,5.8,No
2021/04/11,04:30,0.172,0.154,0.253,0.237,0.235,0.135,0.083,north-northwest,5.6,No
2021/04/11,04:40,0.173,0.153,0.254,0.239,0.235,0.135,0.083,north-northwest,5.8,No
2021/04/11,04:50,0.173,0.154,0.254,0.239,0.237,0.135,0.083,north-northwest,5.9,No
2021/04/11,05:00,0.173,0.154,0.253,0.240,0.236,0.134,0.083,north-northwest,5.9,No
2021/04/11,05:10,0.173,0.155,0.252,0.239,0.235,0.134,0.083,north-northwest,5.6,No
2021/04/11,05:20,0.173,0.154,0.254,0.238,0.235,0.135,0.083,north-northwest,5.2,No
2021/04/11,05:30,0.173,0.154,0.254,0.238,0.235,0.134,0.083,north-northwest,5.0,No
2021/04/11,05:40,0.173,0.154,0.253,0.239,0.237,0.135,0.083,north-northwest,5.3,No
2021/04/11,05:50,0.173,0.154,0.254,0.238,0.235,0.134,0.083,north-northwest,4.6,No
2021/04/11,06:00,0.172,0.154,0.253,0.239,0.236,0.135,0.083,north-northwest,5.2,No
2021/04/11,06:10,0.173,0.153,0.253,0.239,0.235,0.135,0.084,north-northwest,5.0,No
2021/04/11,06:20,0.173,0.154,0.254,0.238,0.236,0.135,0.083,north-northwest,4.8,No
2021/04/11,06:30,0.173,0.154,0.253,0.238,0.236,0.135,0.082,north-northwest,5.2,No
2021/04/11,06:40,0.173,0.154,0.253,0.239,0.235,0.134,0.083,north-northwest,4.6,No
2021/04/11,06:50,0.173,0.154,0.252,0.239,0.235,0.134,0.083,north-northwest,4.4,No
2021/04/11,07:00,0.172,0.154,0.253,0.238,0.237,0.134,0.083,northwest,3.7,No
2021/04/11,07:10,0.172,0.154,0.252,0.238,0.236,0.134,0.083,north-northwest,3.9,No
2021/04/11,07:20,0.173,0.154,0.254,0.238,0.235,0.135,0.082,north-northwest,2.9,No
2021/04/11,07:30,0.172,0.154,0.252,0.239,0.237,0.134,0.083,north,1.8,No
2021/04/11,07:40,0.173,0.152,0.252,0.237,0.236,0.134,0.083,north-northwest,2.4,No
2021/04/11,07:50,0.172,0.153,0.252,0.238,0.235,0.134,0.082,north-northwest,2.4,No
2021/04/11,08:00,0.173,0.153,0.253,0.239,0.236,0.134,0.084,north,2.0,No
2021/04/11,08:10,0.173,0.153,0.252,0.238,0.234,0.135,0.082,north-northeast,2.5,No
2021/04/11,08:20,0.172,0.154,0.251,0.238,0.236,0.135,0.082,north-northeast,2.5,No
2021/04/11,08:30,0.173,0.152,0.253,0.239,0.235,0.135,0.083,north-northeast,3.0,No
2021/04/11,08:40,0.171,0.153,0.250,0.237,0.236,0.135,0.083,north-northeast,2.7,No
2021/04/11,08:50,0.173,0.153,0.253,0.238,0.236,0.134,0.082,north-northeast,3.0,No
2021/04/11,09:00,0.173,0.154,0.253,0.238,0.235,0.134,0.083,northeast,2.9,No
2021/04/11,09:10,0.172,0.152,0.253,0.237,0.236,0.135,0.082,northeast,4.0,No
2021/04/11,09:20,0.172,0.154,0.251,0.238,0.235,0.134,0.083,northeast,3.1,No
2021/04/11,09:30,0.174,0.153,0.254,0.238,0.236,0.134,0.083,northeast,3.9,No
2021/04/11,09:40,0.172,0.153,0.252,0.240,0.234,0.134,0.083,north-northeast,2.8,No
2021/04/11,09:50,0.173,0.153,0.254,0.238,0.236,0.134,0.084,north-northeast,2.7,No
2021/04/11,10:00,0.173,0.153,0.252,0.239,0.235,0.135,0.084,northeast,4.9,No
2021/04/11,10:10,0.173,0.154,0.253,0.238,0.236,0.134,0.083,northeast,3.6,No
2021/04/11,10:20,0.173,0.152,0.252,0.239,0.236,0.135,0.083,northeast,4.0,No
2021/04/11,10:30,0.172,0.153,0.255,0.238,0.236,0.133,0.083,northeast,4.4,No
2021/04/11,10:40,0.173,0.154,0.253,0.239,0.237,0.135,0.083,northeast,3.5,No
2021/04/11,10:50,0.172,0.154,0.253,0.239,0.237,0.134,0.083,northeast,3.6,No
2021/04/11,11:00,0.172,0.153,0.253,0.238,0.238,0.134,0.082,northeast,3.3,No
2021/04/11,11:10,0.173,0.153,0.255,0.239,0.234,0.135,0.083,northeast,2.5,No
2021/04/11,11:20,0.172,0.152,0.252,0.237,0.237,0.135,0.083,north-northeast,2.2,No
2021/04/11,11:30,0.172,0.154,0.254,0.239,0.236,0.135,0.083,northeast,3.3,No
2021/04/11,11:40,0.172,0.154,0.253,0.238,0.237,0.134,0.083,northeast,4.1,No
2021/04/11,11:50,0.172,0.154,0.254,0.239,0.236,0.134,0.083,north-northeast,2.9,No
2021/04/11,12:00,0.172,0.154,0.253,0.238,0.234,0.134,0.083,northeast,3.1,No
2021/04/11,12:10,0.173,0.155,0.254,0.241,0.237,0.134,0.082,northeast,2.3,No
2021/04/11,12:20,0.173,0.153,0.252,0.238,0.234,0.134,0.083,east-northeast,2.8,No
2021/04/11,12:30,0.172,0.154,0.255,0.239,0.236,0.134,0.083,northeast,2.5,No
2021/04/11,12:40,0.172,0.153,0.252,0.239,0.237,0.134,0.083,east,2.8,No
2021/04/11,12:50,0.171,0.154,0.254,0.237,0.235,0.134,0.083,east,2.3,No
2021/04/11,13:00,0.173,0.154,0.254,0.240,0.238,0.134,0.082,south-southeast,1.8,No
2021/04/11,13:10,0.171,0.155,0.254,0.237,0.235,0.134,0.082,southeast,2.8,No
2021/04/11,13:20,0.172,0.153,0.253,0.239,0.236,0.134,0.083,southeast,2.9,No
2021/04/11,13:30,0.172,0.154,0.253,0.240,0.237,0.135,0.083,southeast,2.9,No
2021/04/11,13:40,0.171,0.153,0.254,0.237,0.234,0.135,0.082,southeast,2.7,No
2021/04/11,13:50,0.174,0.154,0.253,0.241,0.238,0.134,0.082,east-southeast,3.4,No
2021/04/11,14:00,0.172,0.154,0.253,0.238,0.236,0.135,0.082,east-southeast,3.2,No
2021/04/11,14:10,0.171,0.153,0.254,0.241,0.235,0.135,0.082,east-southeast,3.1,No
2021/04/11,14:20,0.174,0.153,0.254,0.238,0.237,0.134,0.083,east-southeast,2.7,No
2021/04/11,14:30,0.172,0.153,0.255,0.238,0.236,0.136,0.082,-,CALM,No
2021/04/11,14:40,0.171,0.155,0.252,0.240,0.234,0.135,0.083,east-southeast,2.5,No
2021/04/11,14:50,0.174,0.153,0.254,0.238,0.236,0.134,0.083,southeast,2.3,No
2021/04/11,15:00,0.172,0.154,0.254,0.240,0.235,0.135,0.083,east-southeast,2.4,No
2021/04/11,15:10,0.172,0.154,0.254,0.240,0.237,0.134,0.083,southeast,0.7,No
2021/04/11,15:20,0.174,0.154,0.254,0.239,0.237,0.135,0.083,southeast,1.0,No
2021/04/11,15:30,0.171,0.154,0.254,0.239,0.234,0.135,0.082,southeast,1.1,No
2021/04/11,15:40,0.173,0.155,0.254,0.240,0.237,0.134,0.083,south-southeast,1.6,No
2021/04/11,15:50,0.173,0.154,0.255,0.241,0.236,0.135,0.083,southeast,1.7,No
2021/04/11,16:00,0.173,0.154,0.254,0.240,0.236,0.135,0.083,south-southeast,0.8,No
2021/04/11,16:10,0.173,0.154,0.256,0.240,0.237,0.136,0.083,south-southeast,1.1,No
2021/04/11,16:20,0.172,0.154,0.255,0.241,0.234,0.135,0.083,southeast,2.0,No
2021/04/11,16:30,0.173,0.153,0.255,0.240,0.238,0.135,0.083,southeast,1.3,No
2021/04/11,16:40,0.172,0.154,0.255,0.241,0.235,0.135,0.083,southeast,0.7,No
2021/04/11,16:50,0.173,0.153,0.255,0.240,0.239,0.134,0.083,south-southeast,0.8,No
2021/04/11,17:00,0.172,0.154,0.254,0.240,0.237,0.134,0.083,south,1.0,No
2021/04/11,17:10,0.174,0.154,0.255,0.240,0.239,0.135,0.083,southeast,1.5,No
2021/04/11,17:20,0.173,0.153,0.254,0.241,0.238,0.135,0.083,south-southeast,1.1,No
2021/04/11,17:30,0.173,0.154,0.255,0.240,0.237,0.135,0.083,south-southwest,1.4,No
2021/04/11,17:40,0.173,0.155,0.255,0.241,0.239,0.135,0.083,south,0.9,No
2021/04/11,17:50,0.174,0.154,0.255,0.239,0.237,0.135,0.083,south-southeast,1.5,No
2021/04/11,18:00,0.174,0.154,0.255,0.240,0.238,0.134,0.083,south-southeast,1.1,No
2021/04/11,18:10,0.173,0.154,0.253,0.240,0.237,0.135,0.083,southeast,0.7,No
2021/04/11,18:20,0.172,0.155,0.254,0.239,0.236,0.136,0.083,south-southeast,0.9,No
2021/04/11,18:30,0.173,0.154,0.254,0.239,0.237,0.135,0.083,south,0.9,No
2021/04/11,18:40,0.172,0.154,0.255,0.242,0.236,0.136,0.083,south,1.7,No
2021/04/11,18:50,0.173,0.154,0.255,0.239,0.238,0.134,0.083,south,1.5,No
2021/04/11,19:00,0.173,0.155,0.255,0.240,0.236,0.135,0.083,south,1.4,No
2021/04/11,19:10,0.173,0.154,0.254,0.239,0.236,0.135,0.083,south,2.1,No
2021/04/11,19:20,0.173,0.154,0.256,0.240,0.237,0.135,0.083,south,2.5,No
2021/04/11,19:30,0.174,0.155,0.255,0.239,0.236,0.135,0.083,south,2.7,No
2021/04/11,19:40,0.172,0.156,0.254,0.241,0.237,0.135,0.083,south-southwest,2.5,No
2021/04/11,19:50,0.174,0.153,0.253,0.239,0.237,0.135,0.083,south-southwest,2.1,No
2021/04/11,20:00,0.173,0.154,0.255,0.238,0.237,0.135,0.083,south-southwest,2.1,No
2021/04/11,20:10,0.173,0.155,0.255,0.240,0.237,0.135,0.083,south-southwest,2.6,No
2021/04/11,20:20,0.173,0.154,0.256,0.240,0.237,0.135,0.083,south,2.2,No
2021/04/11,20:30,0.174,0.154,0.255,0.241,0.237,0.135,0.083,south-southwest,2.9,No
2021/04/11,20:40,0.172,0.155,0.255,0.241,0.238,0.136,0.083,south-southwest,3.2,No
2021/04/11,20:50,0.173,0.154,0.254,0.241,0.237,0.136,0.084,south-southwest,2.9,No
2021/04/11,21:00,0.173,0.154,0.254,0.241,0.236,0.136,0.083,south-southwest,3.4,No
2021/04/11,21:10,0.173,0.154,0.255,0.240,0.237,0.135,0.082,southwest,4.0,No
2021/04/11,21:20,0.174,0.155,0.254,0.241,0.236,0.136,0.083,south-southwest,3.7,No
2021/04/11,21:30,0.172,0.154,0.256,0.240,0.237,0.135,0.083,southwest,3.2,No
2021/04/11,21:40,0.173,0.155,0.254,0.239,0.236,0.135,0.082,southwest,4.5,No
2021/04/11,21:50,0.173,0.154,0.255,0.242,0.236,0.134,0.083,southwest,4.0,No
2021/04/11,22:00,0.173,0.155,0.255,0.239,0.236,0.135,0.083,southwest,4.3,No
2021/04/11,22:10,0.173,0.155,0.254,0.240,0.237,0.135,0.083,south-southwest,4.5,No
2021/04/11,22:20,0.172,0.155,0.254,0.240,0.236,0.136,0.083,southwest,4.7,No
2021/04/11,22:30,0.173,0.154,0.256,0.240,0.235,0.135,0.082,southwest,4.2,No
2021/04/11,22:40,0.175,0.155,0.254,0.239,0.237,0.135,0.084,southwest,4.0,No
2021/04/11,22:50,0.173,0.155,0.254,0.240,0.236,0.135,0.083,southwest,4.2,No
2021/04/11,23:00,0.173,0.154,0.254,0.241,0.236,0.135,0.083,southwest,4.5,No
2021/04/11,23:10,0.172,0.153,0.254,0.240,0.237,0.135,0.083,southwest,4.1,No
2021/04/11,23:20,0.173,0.154,0.256,0.238,0.237,0.134,0.083,southwest,4.0,No
2021/04/11,23:30,0.173,0.155,0.256,0.240,0.238,0.134,0.083,southwest,4.5,No
2021/04/11,23:40,0.173,0.154,0.255,0.240,0.236,0.135,0.084,southwest,4.3,No
2021/04/11,23:50,0.172,0.155,0.254,0.240,0.238,0.134,0.084,southwest,5.1,No
